LVEKH SAHR-SAZY

Flight info

Callsign LVEKH
Flight time 1h 16m
Altitude 8000
Route DCT PORPA W32 EKOTA DCT
Aircraft AEST/L-SDFGRY/S

Departure

Time 2026-05-05 18:13
Airport Dr. Arturo H. Illia Airport (SAHR)

Arrival

Time 2026-05-05 19:29
Airport Aviador C. Campos Airport (SAZY)
Time Latitude Longitude Altitude Speed Heading
2026-05-05 17:57 -39.00296 -67.60952 867 ft 0 kts 183°
2026-05-05 18:08 -39.00280 -67.60888 867 ft 9 kts
2026-05-05 18:08 -39.00163 -67.60874 867 ft 21 kts
2026-05-05 18:09 -39.00149 -67.60873 867 ft 0 kts
2026-05-05 18:09 -39.00078 -67.60891 867 ft 25 kts 304°
2026-05-05 18:09 -39.00047 -67.61220 869 ft 49 kts 276°
2026-05-05 18:09 -39.00017 -67.61677 868 ft 44 kts 274°
2026-05-05 18:10 -38.99989 -67.62071 868 ft 29 kts 275°
2026-05-05 18:10 -38.99978 -67.62227 869 ft 27 kts 275°
2026-05-05 18:10 -38.99955 -67.62588 869 ft 51 kts 275°
2026-05-05 18:10 -38.99923 -67.63058 867 ft 26 kts 275°
2026-05-05 18:11 -38.99928 -67.63159 869 ft 0 kts 194°
2026-05-05 18:11 -38.99938 -67.63113 866 ft 16 kts 69°
2026-05-05 18:11 -38.99934 -67.63091 868 ft 0 kts 96°
2026-05-05 18:12 -38.99941 -67.62999 869 ft 45 kts 95°
2026-05-05 18:12 -38.99979 -67.62322 870 ft 95 kts 93°
2026-05-05 18:12 -39.00030 -67.61445 981 ft 103 kts 92°
2026-05-05 18:12 -39.00085 -67.60429 1148 ft 116 kts 92°
2026-05-05 18:13 -39.00131 -67.59415 1371 ft 115 kts 89°
2026-05-05 18:13 -39.00076 -67.58382 1601 ft 116 kts 75°
2026-05-05 18:13 -38.99660 -67.57502 1769 ft 120 kts 40°
2026-05-05 18:13 -38.98817 -67.57232 1936 ft 150 kts 348°
2026-05-05 18:14 -38.97961 -67.58198 2132 ft 181 kts 302°
2026-05-05 18:14 -38.97487 -67.59677 2717 ft 174 kts 288°
2026-05-05 18:14 -38.97545 -67.61222 3227 ft 178 kts 252°
2026-05-05 18:14 -38.98030 -67.62686 3772 ft 177 kts 250°
2026-05-05 18:15 -38.98554 -67.64085 4248 ft 174 kts 232°
2026-05-05 18:15 -38.99519 -67.65025 4757 ft 176 kts 217°
2026-05-05 18:15 -39.00538 -67.65888 5242 ft 174 kts 220°
2026-05-05 18:15 -39.01220 -67.67074 5788 ft 161 kts 257°
2026-05-05 18:16 -39.01237 -67.68453 6248 ft 154 kts 283°
2026-05-05 18:16 -39.01115 -67.69875 6414 ft 166 kts 270°
2026-05-05 18:16 -39.01265 -67.71379 6621 ft 173 kts 262°
2026-05-05 18:16 -39.01508 -67.72897 6837 ft 174 kts 261°
2026-05-05 18:17 -39.01763 -67.74416 7033 ft 174 kts 261°
2026-05-05 18:17 -39.02009 -67.75932 7256 ft 173 kts 262°
2026-05-05 18:17 -39.02252 -67.77415 7472 ft 170 kts 262°
2026-05-05 18:17 -39.02498 -67.78914 7681 ft 168 kts 262°
2026-05-05 18:18 -39.02735 -67.80372 7880 ft 165 kts 262°
2026-05-05 18:18 -39.02965 -67.81796 8063 ft 164 kts 262°
2026-05-05 18:18 -39.03200 -67.83244 8243 ft 163 kts 262°
2026-05-05 18:18 -39.03429 -67.84640 8413 ft 161 kts 262°
2026-05-05 18:19 -39.03669 -67.86137 8106 ft 186 kts 262°
2026-05-05 18:19 -39.03933 -67.87799 7976 ft 195 kts 262°
2026-05-05 18:19 -39.04214 -67.89527 7908 ft 196 kts 261°
2026-05-05 18:19 -39.04494 -67.91230 7933 ft 194 kts 261°
2026-05-05 18:20 -39.04768 -67.92922 7947 ft 192 kts 262°
2026-05-05 18:20 -39.05038 -67.94606 7932 ft 192 kts 262°
2026-05-05 18:20 -39.05310 -67.96287 7934 ft 192 kts 262°
2026-05-05 18:20 -39.05581 -67.97970 7938 ft 192 kts 262°
2026-05-05 18:21 -39.05851 -67.99651 7939 ft 192 kts 262°
2026-05-05 18:21 -39.06122 -68.01330 7935 ft 191 kts 262°
2026-05-05 18:21 -39.06388 -68.02981 7935 ft 190 kts 262°
2026-05-05 18:21 -39.06655 -68.04647 7934 ft 190 kts 262°
2026-05-05 18:22 -39.06922 -68.06317 7934 ft 190 kts 262°
2026-05-05 18:22 -39.07188 -68.07984 7936 ft 190 kts 262°
2026-05-05 18:22 -39.07456 -68.09651 7936 ft 190 kts 262°
2026-05-05 18:22 -39.07723 -68.11318 7935 ft 190 kts 262°
2026-05-05 18:23 -39.07989 -68.12976 7935 ft 189 kts 262°
2026-05-05 18:23 -39.08255 -68.14630 7936 ft 189 kts 262°
2026-05-05 18:23 -39.08517 -68.16289 7935 ft 189 kts 262°
2026-05-05 18:23 -39.08780 -68.17953 7935 ft 189 kts 262°
2026-05-05 18:24 -39.09046 -68.19616 7946 ft 190 kts 262°
2026-05-05 18:24 -39.09316 -68.21289 7932 ft 191 kts 262°
2026-05-05 18:24 -39.09581 -68.22969 7929 ft 191 kts 262°
2026-05-05 18:24 -39.09844 -68.24637 7934 ft 190 kts 262°
2026-05-05 18:25 -39.10107 -68.26301 7933 ft 190 kts 262°
2026-05-05 18:25 -39.10281 -68.27402 7931 ft 190 kts 262°
2026-05-05 18:25 -39.10629 -68.29605 7936 ft 189 kts 262°
2026-05-05 18:25 -39.10897 -68.31287 7939 ft 190 kts 262°
2026-05-05 18:26 -39.11156 -68.32935 7938 ft 191 kts 262°
2026-05-05 18:26 -39.11422 -68.34609 7932 ft 191 kts 262°
2026-05-05 18:26 -39.11686 -68.36283 7933 ft 191 kts 262°
2026-05-05 18:26 -39.11947 -68.37957 7932 ft 190 kts 262°
2026-05-05 18:27 -39.12210 -68.39622 7935 ft 189 kts 262°
2026-05-05 18:27 -39.12472 -68.41285 7942 ft 189 kts 262°
2026-05-05 18:27 -39.12733 -68.42953 7943 ft 190 kts 262°
2026-05-05 18:27 -39.12996 -68.44621 7939 ft 190 kts 262°
2026-05-05 18:28 -39.13520 -68.47969 7933 ft 191 kts 262°
2026-05-05 18:28 -39.13781 -68.49642 7934 ft 190 kts 262°
2026-05-05 18:28 -39.14046 -68.51317 7932 ft 191 kts 262°
2026-05-05 18:29 -39.14304 -68.52988 7936 ft 190 kts 262°
2026-05-05 18:29 -39.14568 -68.54649 7937 ft 189 kts 263°
2026-05-05 18:29 -39.14822 -68.56308 7933 ft 188 kts 263°
2026-05-05 18:29 -39.15079 -68.57962 7929 ft 188 kts 263°
2026-05-05 18:30 -39.15336 -68.59616 7933 ft 188 kts 263°
2026-05-05 18:30 -39.15590 -68.61252 7935 ft 189 kts 263°
2026-05-05 18:30 -39.15848 -68.62911 7930 ft 189 kts 263°
2026-05-05 18:30 -39.16105 -68.64571 7930 ft 188 kts 263°
2026-05-05 18:31 -39.16362 -68.66226 7928 ft 189 kts 263°
2026-05-05 18:31 -39.16617 -68.67882 7929 ft 188 kts 263°
2026-05-05 18:31 -39.16869 -68.69539 7927 ft 188 kts 263°
2026-05-05 18:31 -39.17126 -68.71192 7929 ft 188 kts 263°
2026-05-05 18:32 -39.17445 -68.72822 7917 ft 188 kts 251°
2026-05-05 18:32 -39.18250 -68.74169 7927 ft 195 kts 232°
2026-05-05 18:32 -39.19264 -68.75372 7929 ft 200 kts 231°
2026-05-05 18:32 -39.20286 -68.76592 7931 ft 201 kts 232°
2026-05-05 18:33 -39.21298 -68.77829 7932 ft 201 kts 232°
2026-05-05 18:33 -39.22303 -68.79075 7930 ft 200 kts 232°
2026-05-05 18:33 -39.23309 -68.80322 7930 ft 201 kts 232°
2026-05-05 18:33 -39.24319 -68.81570 7923 ft 201 kts 232°
2026-05-05 18:34 -39.25332 -68.82815 7926 ft 201 kts 232°
2026-05-05 18:34 -39.26345 -68.84060 7930 ft 201 kts 232°
2026-05-05 18:34 -39.27354 -68.85306 7928 ft 201 kts 232°
2026-05-05 18:34 -39.28366 -68.86550 7942 ft 201 kts 232°
2026-05-05 18:35 -39.29381 -68.87796 7928 ft 201 kts 233°
2026-05-05 18:35 -39.30388 -68.89054 7921 ft 201 kts 233°
2026-05-05 18:35 -39.31385 -68.90288 7924 ft 200 kts 233°
2026-05-05 18:35 -39.32386 -68.91532 7925 ft 200 kts 233°
2026-05-05 18:36 -39.33392 -68.92777 7929 ft 200 kts 233°
2026-05-05 18:36 -39.34398 -68.94026 7928 ft 200 kts 233°
2026-05-05 18:36 -39.35403 -68.95274 7923 ft 200 kts 233°
2026-05-05 18:36 -39.36410 -68.96518 7925 ft 200 kts 233°
2026-05-05 18:37 -39.37412 -68.97760 7933 ft 200 kts 233°
2026-05-05 18:37 -39.38418 -68.99006 7925 ft 200 kts 233°
2026-05-05 18:37 -39.39419 -69.00251 7918 ft 200 kts 233°
2026-05-05 18:37 -39.40422 -69.01498 7923 ft 200 kts 233°
2026-05-05 18:38 -39.41428 -69.02753 7922 ft 203 kts 233°
2026-05-05 18:38 -39.42448 -69.04024 7918 ft 204 kts 232°
2026-05-05 18:38 -39.43476 -69.05296 7922 ft 204 kts 233°
2026-05-05 18:38 -39.44502 -69.06568 7924 ft 205 kts 233°
2026-05-05 18:39 -39.45529 -69.07850 7930 ft 205 kts 233°
2026-05-05 18:39 -39.46557 -69.09132 7915 ft 206 kts 232°
2026-05-05 18:39 -39.47587 -69.10413 7920 ft 205 kts 232°
2026-05-05 18:39 -39.48616 -69.11693 7930 ft 205 kts 233°
2026-05-05 18:40 -39.49643 -69.12973 7925 ft 205 kts 233°
2026-05-05 18:40 -39.50671 -69.14258 7916 ft 206 kts 233°
2026-05-05 18:40 -39.51703 -69.15545 7911 ft 206 kts 233°
2026-05-05 18:40 -39.52733 -69.16832 7925 ft 206 kts 233°
2026-05-05 18:41 -39.53761 -69.18118 7926 ft 206 kts 233°
2026-05-05 18:41 -39.54777 -69.19386 7929 ft 205 kts 232°
2026-05-05 18:41 -39.55820 -69.20665 7918 ft 206 kts 233°
2026-05-05 18:41 -39.56846 -69.21960 7912 ft 205 kts 234°
2026-05-05 18:42 -39.57869 -69.23253 7916 ft 205 kts 234°
2026-05-05 18:42 -39.58898 -69.24538 7919 ft 205 kts 234°
2026-05-05 18:42 -39.59924 -69.25822 7919 ft 205 kts 234°
2026-05-05 18:42 -39.60950 -69.27110 7915 ft 205 kts 234°
2026-05-05 18:43 -39.61978 -69.28398 7915 ft 205 kts 234°
2026-05-05 18:43 -39.63008 -69.29688 7908 ft 206 kts 234°
2026-05-05 18:43 -39.64042 -69.30984 7917 ft 206 kts 234°
2026-05-05 18:43 -39.65069 -69.32275 7916 ft 206 kts 234°
2026-05-05 18:44 -39.66095 -69.33567 7917 ft 205 kts 234°
2026-05-05 18:44 -39.67122 -69.34854 7917 ft 205 kts 234°
2026-05-05 18:44 -39.68151 -69.36145 7916 ft 205 kts 234°
2026-05-05 18:44 -39.69177 -69.37443 7925 ft 207 kts 234°
2026-05-05 18:45 -39.70200 -69.38731 7915 ft 208 kts 233°
2026-05-05 18:45 -39.71241 -69.40035 7917 ft 208 kts 233°
2026-05-05 18:45 -39.72280 -69.41341 7914 ft 208 kts 233°
2026-05-05 18:45 -39.73317 -69.42646 7914 ft 208 kts 233°
2026-05-05 18:46 -39.74354 -69.43952 7918 ft 207 kts 233°
2026-05-05 18:46 -39.75390 -69.45258 7911 ft 207 kts 233°
2026-05-05 18:46 -39.76425 -69.46563 7919 ft 207 kts 233°
2026-05-05 18:46 -39.77458 -69.47867 7919 ft 207 kts 233°
2026-05-05 18:47 -39.78492 -69.49171 7914 ft 207 kts 233°
2026-05-05 18:47 -39.79529 -69.50483 7913 ft 208 kts 233°
2026-05-05 18:47 -39.80565 -69.51794 7912 ft 208 kts 233°
2026-05-05 18:47 -39.81603 -69.53103 7923 ft 209 kts 233°
2026-05-05 18:48 -39.82647 -69.54421 7916 ft 210 kts 233°
2026-05-05 18:48 -39.83696 -69.55747 7913 ft 210 kts 233°
2026-05-05 18:48 -39.84741 -69.57070 7916 ft 210 kts 233°
2026-05-05 18:48 -39.85785 -69.58393 7921 ft 209 kts 234°
2026-05-05 18:49 -39.86830 -69.59719 7919 ft 210 kts 234°
2026-05-05 18:49 -39.87877 -69.61046 7919 ft 211 kts 233°
2026-05-05 18:49 -39.88929 -69.62379 7916 ft 211 kts 233°
2026-05-05 18:49 -39.89976 -69.63707 7917 ft 210 kts 233°
2026-05-05 18:50 -39.91023 -69.65034 7922 ft 210 kts 233°
2026-05-05 18:50 -39.92055 -69.66345 7919 ft 210 kts 234°
2026-05-05 18:50 -39.93100 -69.67674 7913 ft 210 kts 234°
2026-05-05 18:50 -39.94148 -69.69003 7919 ft 209 kts 234°
2026-05-05 18:51 -39.95189 -69.70325 7922 ft 209 kts 234°
2026-05-05 18:51 -39.96235 -69.71661 7933 ft 212 kts 234°
2026-05-05 18:51 -39.97295 -69.73035 7926 ft 216 kts 232°
2026-05-05 18:51 -39.98380 -69.74401 7925 ft 217 kts 231°
2026-05-05 18:52 -39.99465 -69.75769 7919 ft 217 kts 232°
2026-05-05 18:52 -40.00546 -69.77145 7921 ft 217 kts 232°
2026-05-05 18:52 -40.01625 -69.78522 7918 ft 217 kts 232°
2026-05-05 18:52 -40.02704 -69.79895 7927 ft 217 kts 232°
2026-05-05 18:53 -40.03785 -69.81274 7926 ft 217 kts 232°
2026-05-05 18:53 -40.04865 -69.82656 7941 ft 218 kts 232°
2026-05-05 18:53 -40.05945 -69.84041 7984 ft 218 kts 234°
2026-05-05 18:53 -40.07016 -69.85420 8048 ft 215 kts 231°
2026-05-05 18:54 -40.08092 -69.86763 8171 ft 213 kts 232°
2026-05-05 18:54 -40.09149 -69.88119 8273 ft 212 kts 232°
2026-05-05 18:54 -40.10196 -69.89465 8291 ft 211 kts 233°
2026-05-05 18:54 -40.11229 -69.90798 8304 ft 212 kts 232°
2026-05-05 18:55 -40.12287 -69.92145 8309 ft 213 kts 232°
2026-05-05 18:55 -40.13344 -69.93500 8305 ft 212 kts 233°
2026-05-05 18:55 -40.14390 -69.94856 8280 ft 211 kts 233°
2026-05-05 18:55 -40.15423 -69.96187 8361 ft 207 kts 231°
2026-05-05 18:56 -40.16448 -69.97465 8517 ft 201 kts 232°
2026-05-05 18:56 -40.17439 -69.98738 8610 ft 200 kts 233°
2026-05-05 18:56 -40.18344 -70.00089 8761 ft 195 kts 249°
2026-05-05 18:56 -40.18685 -70.01722 8980 ft 180 kts 275°
2026-05-05 18:57 -40.18585 -70.02801 8900 ft 185 kts 291°
2026-05-05 18:57 -40.18070 -70.04368 8777 ft 188 kts 296°
2026-05-05 18:57 -40.17354 -70.06422 8838 ft 183 kts 296°
2026-05-05 18:57 -40.16825 -70.07934 8850 ft 183 kts 296°
2026-05-05 18:58 -40.16515 -70.08959 8823 ft 184 kts 285°
2026-05-05 18:58 -40.16570 -70.10622 8836 ft 189 kts 257°
2026-05-05 18:58 -40.17182 -70.12183 8839 ft 196 kts 249°
2026-05-05 18:58 -40.17737 -70.13807 8841 ft 194 kts 258°
2026-05-05 18:59 -40.18087 -70.15502 8842 ft 192 kts 266°
2026-05-05 18:59 -40.18171 -70.17236 8833 ft 190 kts 277°
2026-05-05 18:59 -40.18073 -70.18940 8835 ft 187 kts 280°
2026-05-05 18:59 -40.17944 -70.20625 8844 ft 186 kts 280°
2026-05-05 19:00 -40.17828 -70.22319 8830 ft 187 kts 279°
2026-05-05 19:00 -40.17717 -70.24003 8835 ft 186 kts 280°
2026-05-05 19:00 -40.17597 -70.25692 8836 ft 187 kts 279°
2026-05-05 19:00 -40.17493 -70.27380 8850 ft 186 kts 279°
2026-05-05 19:01 -40.17384 -70.29071 8826 ft 186 kts 280°
2026-05-05 19:01 -40.17267 -70.30753 8838 ft 186 kts 280°
2026-05-05 19:01 -40.17143 -70.32415 8839 ft 186 kts 283°
2026-05-05 19:01 -40.16871 -70.34062 8827 ft 185 kts 287°
2026-05-05 19:02 -40.16581 -70.35696 8826 ft 185 kts 286°
2026-05-05 19:02 -40.16321 -70.37342 8834 ft 185 kts 285°
2026-05-05 19:02 -40.16068 -70.38997 8833 ft 186 kts 285°
2026-05-05 19:02 -40.15811 -70.40658 8827 ft 186 kts 285°
2026-05-05 19:03 -40.15554 -70.42316 8826 ft 186 kts 285°
2026-05-05 19:03 -40.15299 -70.43968 8825 ft 185 kts 285°
2026-05-05 19:03 -40.15042 -70.45619 8846 ft 186 kts 285°
2026-05-05 19:03 -40.14779 -70.47284 8826 ft 187 kts 285°
2026-05-05 19:04 -40.14518 -70.48958 8821 ft 188 kts 285°
2026-05-05 19:04 -40.14260 -70.50640 8828 ft 189 kts 285°
2026-05-05 19:04 -40.13996 -70.52306 8818 ft 190 kts 285°
2026-05-05 19:04 -40.13738 -70.54021 8836 ft 190 kts 286°
2026-05-05 19:05 -40.13473 -70.55691 8816 ft 190 kts 286°
2026-05-05 19:05 -40.13205 -70.57372 8819 ft 188 kts 286°
2026-05-05 19:05 -40.12940 -70.59044 8812 ft 188 kts 286°
2026-05-05 19:05 -40.12677 -70.60715 8820 ft 187 kts 286°
2026-05-05 19:06 -40.12415 -70.62382 8811 ft 187 kts 286°
2026-05-05 19:06 -40.12158 -70.64019 8795 ft 180 kts 286°
2026-05-05 19:06 -40.11908 -70.65611 8814 ft 178 kts 286°
2026-05-05 19:06 -40.11658 -70.67192 8818 ft 178 kts 286°
2026-05-05 19:07 -40.11407 -70.68782 8820 ft 179 kts 286°
2026-05-05 19:07 -40.11153 -70.70385 8817 ft 180 kts 286°
2026-05-05 19:07 -40.10902 -70.71979 8810 ft 178 kts 286°
2026-05-05 19:07 -40.10650 -70.73576 8818 ft 179 kts 287°
2026-05-05 19:08 -40.10399 -70.75152 8817 ft 180 kts 286°
2026-05-05 19:08 -40.10142 -70.76770 8807 ft 180 kts 286°
2026-05-05 19:08 -40.09892 -70.78343 8814 ft 179 kts 286°
2026-05-05 19:08 -40.09641 -70.79933 8814 ft 178 kts 287°
2026-05-05 19:09 -40.09391 -70.81512 8814 ft 178 kts 287°
2026-05-05 19:09 -40.09135 -70.83097 8814 ft 178 kts 286°
2026-05-05 19:09 -40.08881 -70.84685 8815 ft 179 kts 286°
2026-05-05 19:09 -40.08630 -70.86278 8816 ft 179 kts 286°
2026-05-05 19:10 -40.08376 -70.87875 8815 ft 180 kts 286°
2026-05-05 19:10 -40.08117 -70.89484 8813 ft 182 kts 287°
2026-05-05 19:10 -40.07856 -70.91099 8821 ft 183 kts 285°
2026-05-05 19:10 -40.07613 -70.92755 8782 ft 188 kts 288°
2026-05-05 19:11 -40.07322 -70.94405 8770 ft 186 kts 287°
2026-05-05 19:11 -40.07066 -70.96065 8762 ft 188 kts 285°
2026-05-05 19:11 -40.06802 -70.97740 8754 ft 190 kts 285°
2026-05-05 19:11 -40.06543 -70.99426 8742 ft 189 kts 287°
2026-05-05 19:12 -40.06264 -71.01091 8748 ft 186 kts 288°
2026-05-05 19:12 -40.05988 -71.02702 8743 ft 183 kts 287°
2026-05-05 19:12 -40.05726 -71.04366 8740 ft 186 kts 287°
2026-05-05 19:12 -40.05461 -71.06010 8737 ft 185 kts 287°
2026-05-05 19:13 -40.05202 -71.07630 8736 ft 184 kts 287°
2026-05-05 19:13 -40.04941 -71.09261 8742 ft 180 kts 287°
2026-05-05 19:13 -40.04694 -71.10810 8734 ft 168 kts 285°
2026-05-05 19:13 -40.04462 -71.12242 8736 ft 155 kts 288°
2026-05-05 19:14 -40.04241 -71.13573 8738 ft 145 kts 287°
2026-05-05 19:14 -40.04096 -71.14835 8726 ft 138 kts 274°
2026-05-05 19:14 -40.04246 -71.16079 8759 ft 141 kts 269°
2026-05-05 19:14 -40.04415 -71.17359 8751 ft 146 kts 269°
2026-05-05 19:15 -40.04577 -71.18681 8741 ft 150 kts 270°
2026-05-05 19:15 -40.04736 -71.20035 8727 ft 152 kts 269°
2026-05-05 19:15 -40.04901 -71.21399 8746 ft 152 kts 269°
2026-05-05 19:15 -40.05058 -71.22770 8754 ft 153 kts 269°
2026-05-05 19:16 -40.05220 -71.24159 8746 ft 156 kts 269°
2026-05-05 19:16 -40.05390 -71.25566 8800 ft 158 kts 269°
2026-05-05 19:16 -40.05558 -71.26998 8810 ft 161 kts 270°
2026-05-05 19:16 -40.05727 -71.28455 8795 ft 162 kts 269°
2026-05-05 19:17 -40.05901 -71.29930 8804 ft 165 kts 270°
2026-05-05 19:17 -40.06067 -71.31411 8799 ft 165 kts 270°
2026-05-05 19:17 -40.06239 -71.32893 8797 ft 165 kts 270°
2026-05-05 19:17 -40.06409 -71.34370 8794 ft 164 kts 269°
2026-05-05 19:18 -40.06577 -71.35836 8796 ft 163 kts 269°
2026-05-05 19:18 -40.06750 -71.37282 8788 ft 161 kts 270°
2026-05-05 19:18 -40.06915 -71.38729 8835 ft 162 kts 269°
2026-05-05 19:18 -40.07085 -71.40181 8811 ft 165 kts 269°
2026-05-05 19:19 -40.07264 -71.41697 8807 ft 169 kts 269°
2026-05-05 19:19 -40.07442 -71.43197 8808 ft 166 kts 270°
2026-05-05 19:19 -40.07609 -71.44713 8786 ft 174 kts 269°
2026-05-05 19:19 -40.07781 -71.46285 8781 ft 174 kts 269°
2026-05-05 19:20 -40.07971 -71.47861 8689 ft 176 kts 268°
2026-05-05 19:20 -40.08199 -71.49466 8585 ft 184 kts 259°
2026-05-05 19:20 -40.08914 -71.50892 8375 ft 196 kts 230°
2026-05-05 19:20 -40.10146 -71.51706 8163 ft 206 kts 200°
2026-05-05 19:21 -40.11600 -71.51650 7994 ft 217 kts 171°
2026-05-05 19:21 -40.12947 -71.50743 7957 ft 220 kts 146°
2026-05-05 19:21 -40.14178 -71.49615 7801 ft 213 kts 150°
2026-05-05 19:21 -40.15472 -71.48750 7608 ft 206 kts 151°
2026-05-05 19:22 -40.16477 -71.47474 7499 ft 200 kts 124°
2026-05-05 19:22 -40.17118 -71.45922 7494 ft 193 kts 104°
2026-05-05 19:22 -40.17145 -71.44141 7123 ft 196 kts 71°
2026-05-05 19:22 -40.16712 -71.42772 7291 ft 143 kts 54°
2026-05-05 19:23 -40.16227 -71.41599 6621 ft 148 kts 50°
2026-05-05 19:23 -40.15693 -71.40462 6018 ft 146 kts 54°
2026-05-05 19:23 -40.15198 -71.39410 5887 ft 130 kts 49°
2026-05-05 19:23 -40.14639 -71.38371 4935 ft 154 kts 60°
2026-05-05 19:24 -40.14177 -71.37190 4746 ft 134 kts 61°
2026-05-05 19:24 -40.13677 -71.36041 3898 ft 165 kts 61°
2026-05-05 19:24 -40.13459 -71.34666 3681 ft 153 kts 99°
2026-05-05 19:24 -40.13695 -71.33398 3396 ft 137 kts 102°
2026-05-05 19:25 -40.13631 -71.32235 3177 ft 131 kts 70°
2026-05-05 19:25 -40.13207 -71.31113 3068 ft 141 kts 60°
2026-05-05 19:25 -40.12738 -71.30011 3120 ft 140 kts 60°
2026-05-05 19:25 -40.12310 -71.28925 3375 ft 121 kts 68°
2026-05-05 19:26 -40.12008 -71.27921 3646 ft 122 kts 69°
2026-05-05 19:26 -40.11677 -71.26810 3615 ft 134 kts 66°
2026-05-05 19:26 -40.11329 -71.25693 3711 ft 134 kts 71°
2026-05-05 19:26 -40.11062 -71.24527 3801 ft 132 kts 65°
2026-05-05 19:27 -40.10674 -71.23434 3939 ft 127 kts 69°
2026-05-05 19:27 -40.10310 -71.22387 3855 ft 130 kts 60°
2026-05-05 19:27 -40.09819 -71.21328 3568 ft 135 kts 60°
2026-05-05 19:27 -40.09498 -71.20213 3274 ft 132 kts 72°
2026-05-05 19:28 -40.09205 -71.19148 3242 ft 120 kts 64°
2026-05-05 19:28 -40.08837 -71.18176 3179 ft 120 kts 63°
2026-05-05 19:28 -40.08493 -71.17211 3099 ft 110 kts 66°
2026-05-05 19:28 -40.08284 -71.16288 2855 ft 103 kts 73°
2026-05-05 19:29 -40.08035 -71.15447 2715 ft 94 kts 67°
2026-05-05 19:29 -40.07844 -71.14766 2636 ft 71 kts 69°
2026-05-05 19:29 -40.07728 -71.14387 2592 ft 32 kts 71°
2026-05-05 19:29 -40.07641 -71.14085 2595 ft 40 kts 67°
2026-05-05 19:30 -40.07586 -71.13856 2594 ft 19 kts 126°
2026-05-05 19:30 -40.07678 -71.13901 2593 ft 18 kts 214°
2026-05-05 19:30 -40.07705 -71.13925 2593 ft 0 kts 214°
2026-05-05 19:30 -40.07717 -71.13936 2593 ft 13 kts 213°
2026-05-05 19:31 -40.07827 -71.14027 2581 ft 18 kts 214°
2026-05-05 19:31 -40.07936 -71.14122 2626 ft 18 kts 208°
2026-05-05 19:31 -40.08032 -71.14203 2626 ft 15 kts 220°
2026-05-05 19:31 -40.08063 -71.14277 2626 ft 4 kts 245°
2026-05-05 19:32 -40.08067 -71.14286 2626 ft 0 kts 246°